| time (UTC) | temp F | wind direction | speed MPH | gust MPH | rain 1hr in | rain 24hr in | rain mn in | humidity % | barometer mb |
| 20260504213017 | 77 | 202 | 14.0 | 21.0 | 0.00 | 0.00 | 0.00 | 71 | 1012.0 |
| 20260504212017 | 77 | 180 | 12.0 | 21.0 | 0.00 | 0.00 | 0.00 | 70 | 1012.0 |
| 20260504211016 | 76 | 202 | 14.0 | 22.0 | 0.00 | 0.00 | 0.00 | 70 | 1012.3 |
| 20260504210016 | 76 | 202 | 15.0 | 23.0 | 0.00 | 0.00 | 0.00 | 71 | 1012.3 |
| 20260504205016 | 76 | 202 | 13.0 | 24.0 | 0.00 | 0.00 | 0.00 | 72 | 1012.4 |
| 20260504204016 | 76 | 202 | 14.0 | 21.0 | 0.00 | 0.00 | 0.00 | 71 | 1012.5 |
| 20260504203016 | 77 | 202 | 11.0 | 19.0 | 0.00 | 0.00 | 0.00 | 69 | 1012.8 |
| 20260504201016 | 78 | 202 | 14.0 | 20.0 | 0.00 | 0.00 | 0.00 | 68 | 1013.2 |
| 20260504200017 | 78 | 202 | 12.0 | 20.0 | 0.00 | 0.00 | 0.00 | 67 | 1013.3 |
| 20260504194016 | 77 | 180 | 10.0 | 17.0 | 0.00 | 0.00 | 0.00 | 70 | 1013.6 |
| 20260504193017 | 77 | 202 | 12.0 | 20.0 | 0.00 | 0.00 | 0.00 | 70 | 1013.8 |
| 20260504192016 | 76 | 202 | 16.0 | 26.0 | 0.00 | 0.00 | 0.00 | 70 | 1014.1 |
| 20260504191016 | 0 | 202 | 14.0 | 22.0 | 0.00 | 0.00 | 0.00 | ||
| 20260504190017 | 75 | 180 | 13.0 | 23.0 | 0.00 | 0.00 | 0.00 | 72 | 1014.1 |
| 20260504185016 | 75 | 202 | 13.0 | 19.0 | 0.00 | 0.00 | 0.00 | 72 | 1014.1 |
| 20260504184017 | 75 | 202 | 12.0 | 19.0 | 0.00 | 0.00 | 0.00 | 74 | 1014.3 |
| 20260504183016 | 74 | 202 | 12.0 | 19.0 | 0.00 | 0.00 | 0.00 | 74 | 1014.1 |
| 20260504182017 | 73 | 202 | 12.0 | 23.0 | 0.00 | 0.00 | 0.00 | 76 | 1014.2 |
| 20260504181017 | 73 | 202 | 12.0 | 22.0 | 0.00 | 0.00 | 0.00 | 75 | 1014.3 |
| 20260504180016 | 72 | 202 | 13.0 | 22.0 | 0.00 | 0.00 | 0.00 | 76 | 1014.3 |
| 20260504175016 | 72 | 202 | 12.0 | 20.0 | 0.00 | 0.00 | 0.00 | 76 | 1014.7 |
| 20260504174017 | 72 | 202 | 15.0 | 25.0 | 0.00 | 0.00 | 0.00 | 76 | 1014.7 |
| 20260504172017 | 71 | 202 | 15.0 | 23.0 | 0.00 | 0.00 | 0.00 | 78 | 1014.7 |
| 20260504171017 | 71 | 202 | 13.0 | 23.0 | 0.00 | 0.00 | 0.00 | 79 | 1015.0 |
| 20260504170117 | 70 | 202 | 13.0 | 22.0 | 0.00 | 0.00 | 0.00 | 79 | 1014.9 |
| 20260504151017 | 64 | 202 | 16.0 | 26.0 | 0.00 | 0.00 | 0.00 | 87 | 1014.9 |
| 20260504141017 | 62 | 202 | 15.0 | 22.0 | 0.00 | 0.00 | 0.00 | 89 | 1014.8 |
| 20260504081055 | 58 | 180 | 9.0 | 15.0 | 0.00 | 0.00 | 0.00 | 88 | 1016.0 |
| 20260504050015 | 61 | 180 | 6.0 | 11.0 | 0.00 | 0.00 | 0.00 | 69 | 1018.1 |
| 20260504045016 | 61 | 180 | 7.0 | 11.0 | 0.00 | 0.00 | 0.00 | 68 | 1018.0 |
| 20260504044017 | 61 | 180 | 6.0 | 10.0 | 0.00 | 0.00 | 0.00 | 68 | 1018.1 |
| 20260504043017 | 61 | 180 | 6.0 | 10.0 | 0.00 | 0.00 | 0.00 | 68 | 1018.2 |
| 20260504042017 | 62 | 180 | 6.0 | 11.0 | 0.00 | 0.00 | 0.00 | 68 | 1018.2 |
| 20260504041017 | 62 | 180 | 7.0 | 11.0 | 0.00 | 0.00 | 0.00 | 68 | 1018.2 |
| 20260504040017 | 62 | 180 | 6.0 | 11.0 | 0.00 | 0.00 | 0.00 | 68 | 1018.2 |
| 20260504035017 | 62 | 180 | 7.0 | 11.0 | 0.00 | 0.00 | 0.00 | 68 | 1018.1 |
| 20260504034017 | 62 | 180 | 7.0 | 11.0 | 0.00 | 0.00 | 0.00 | 68 | 1018.1 |
| 20260504033015 | 62 | 180 | 7.0 | 11.0 | 0.00 | 0.00 | 0.00 | 68 | 1018.1 |
| 20260504025017 | 62 | 157 | 5.0 | 10.0 | 0.00 | 0.00 | 0.00 | 68 | 1018.2 |
| 20260504023017 | 62 | 180 | 4.0 | 7.0 | 0.00 | 0.00 | 0.00 | 68 | 1018.1 |
| 20260504022015 | 63 | 180 | 5.0 | 7.0 | 0.00 | 0.00 | 0.00 | 67 | 1018.1 |
| 20260504020117 | 63 | 180 | 5.0 | 9.0 | 0.00 | 0.00 | 0.00 | 66 | 1018.2 |
| 20260504015017 | 64 | 180 | 5.0 | 9.0 | 0.00 | 0.00 | 0.00 | 64 | 1017.9 |
| 20260504014017 | 64 | 180 | 5.0 | 10.0 | 0.00 | 0.00 | 0.00 | 63 | 1017.9 |
| 20260504013017 | 65 | 180 | 4.0 | 7.0 | 0.00 | 0.00 | 0.00 | 62 | 1017.9 |
| 20260504012017 | 65 | 180 | 5.0 | 7.0 | 0.00 | 0.00 | 0.00 | 61 | 1017.9 |
| 20260504011015 | 66 | 180 | 6.0 | 10.0 | 0.00 | 0.00 | 0.00 | 59 | 1017.5 |
| 20260504010017 | 67 | 180 | 7.0 | 12.0 | 0.00 | 0.00 | 0.00 | 58 | 1017.5 |
| 20260504005017 | 67 | 180 | 6.0 | 12.0 | 0.00 | 0.00 | 0.00 | 57 | 1017.5 |
| 20260504004015 | 68 | 157 | 6.0 | 12.0 | 0.00 | 0.00 | 0.00 | 54 | 1017.2 |
| 20260504003015 | 69 | 180 | 6.0 | 10.0 | 0.00 | 0.00 | 0.00 | 54 | |
| 20260504002016 | 69 | 180 | 6.0 | 14.0 | 0.00 | 0.00 | 0.00 | 53 | |
| 20260504001015 | 69 | 180 | 6.0 | 13.0 | 0.00 | 0.00 | 0.00 | 53 | |
| 20260504000015 | 69 | 180 | 8.0 | 14.0 | 0.00 | 0.00 | 0.00 | 51 | 1017.4 |
| 20260503235015 | 70 | 157 | 5.0 | 11.0 | 0.00 | 0.00 | 0.00 | 51 | 1017.5 |
| 20260503234015 | 70 | 180 | 6.0 | 11.0 | 0.00 | 0.00 | 0.00 | 49 | 1018.0 |
| 20260503232015 | 71 | 180 | 9.0 | 15.0 | 0.00 | 0.00 | 0.00 | 49 | 1018.2 |
| 20260503231015 | 71 | 180 | 10.0 | 18.0 | 0.00 | 0.00 | 0.00 | 48 | 1018.1 |
| 20260503230115 | 71 | 180 | 8.0 | 15.0 | 0.00 | 0.00 | 0.00 | 48 | 1018.0 |
| 20260503225015 | 72 | 180 | 10.0 | 18.0 | 0.00 | 0.00 | 0.00 | 45 | 1018.0 |
| 20260503224015 | 73 | 202 | 10.0 | 16.0 | 0.00 | 0.00 | 0.00 | 45 | 1018.1 |
| 20260503223015 | 73 | 180 | 9.0 | 14.0 | 0.00 | 0.00 | 0.00 | 46 | 1018.3 |
| 20260503222015 | 73 | 202 | 10.0 | 17.0 | 0.00 | 0.00 | 0.00 | 44 | 1018.4 |
| 20260503221115 | 73 | 202 | 10.0 | 20.0 | 0.00 | 0.00 | 0.00 | 44 | 1018.5 |
| 20260503220015 | 74 | 180 | 8.0 | 14.0 | 0.00 | 0.00 | 0.00 | 45 | 1018.7 |
| 20260503215015 | 73 | 202 | 10.0 | 16.0 | 0.00 | 0.00 | 0.00 | 45 | 1018.6 |
| 20260503214015 | 72 | 180 | 7.0 | 14.0 | 0.00 | 0.00 | 0.00 | 45 | 1018.9 |